RH
8 8 7 7 8 10 11 13 14 14 14 13 14 15 15 14 14 12 19 14 14 7 5 30 33 22 24 20 18 16 26 18 17 29 16 16 16 20 24 28 30 32 38 47 54
9 9 8 8 8 7 7 8 10 12 13 14 12 13 14 14 13 17 11 12 10 7 8 21 20 19 18 16 15 15 54 20 11 23 15 16 16 20 23 27 29 33 38 50 55
10 10 9 9 9 8 8 7 7 8 10 12 13 12 12 14 20 11 13 10 7 6 15 16 15 17 16 12 10 11 28 17 12 13 16 15 16 18 19 24 27 32 41 50 54
10 10 10 10 9 9 8 8 8 7 7 8 11 12 12 11 13 15 11 9 10 8 22 14 14 12 13 10 9 11 12 11 12 14 15 15 16 17 17 18 24 31 39 47 51
9 9 9 9 9 9 9 9 8 8 7 7 7 9 10 22 13 11 10 10 10 15 22 13 12 10 11 8 8 9 10 9 10 12 12 16 17 16 17 18 24 31 37 43 47
8 8 8 7 7 8 8 9 8 8 7 7 6 7 10 16 9 13 14 16 19 20 15 12 11 9 8 8 8 8 8 8 9 9 12 15 16 19 18 20 25 33 36 40 42
7 7 7 8 7 6 7 8 8 8 8 7 7 6 24 16 10 11 18 17 17 16 13 10 9 7 7 7 7 8 9 10 10 9 12 14 16 17 18 24 26 32 35 36 39
7 6 6 6 7 7 6 6 8 8 8 7 7 8 22 12 15 12 12 13 14 15 12 9 7 7 7 7 8 8 9 12 10 10 12 14 19 17 20 22 23 29 34 35 37
8 6 6 6 6 7 6 6 7 8 8 8 14 34 17 16 17 15 14 14 13 12 14 10 9 8 7 8 9 10 12 12 13 11 14 16 26 17 21 20 22 25 30 34 37
11 9 7 5 5 6 6 6 7 8 16 16 44 38 22 14 13 15 14 13 11 13 12 11 8 8 7 9 13 13 12 11 17 12 15 16 23 18 21 20 19 23 25 31 34
13 10 8 6 5 5 6 15 26 44 49 21 17 13 12 11 15 14 14 12 10 12 10 8 7 8 8 9 9 10 10 11 10 10 14 16 16 18 20 21 19 21 23 27 31
14 12 10 8 5 6 10 16 15 16 12 10 10 10 10 9 9 12 13 10 8 10 9 7 8 6 6 8 9 9 10 11 10 11 13 15 17 15 20 20 21 21 22 24 27
17 14 11 9 6 21 17 18 18 16 12 8 7 7 7 7 7 8 9 11 8 9 8 6 5 5 6 8 10 9 10 10 11 16 14 15 18 16 15 20 22 21 22 23 24
21 17 14 10 20 17 18 21 18 17 14 7 7 7 8 8 7 7 8 8 10 9 7 7 4 4 6 8 8 10 8 9 9 17 21 13 20 17 14 15 20 21 22 22 23
27 20 17 15 11 21 17 17 16 18 17 7 8 10 10 10 10 10 10 8 10 9 7 7 5 5 6 6 7 9 7 9 9 13 22 13 16 17 13 15 16 18 22 21 21
28 24 20 24 39 25 24 22 19 17 17 8 9 11 12 11 8 11 10 8 8 8 7 7 5 4 4 4 6 6 8 9 9 10 16 15 17 16 19 14 13 14 18 22 22
26 23 21 21 25 23 20 17 14 16 8 8 8 8 9 9 8 10 10 9 10 12 12 9 7 5 4 5 5 7 9 14 16 14 15 11 16 25 11 11 11 10 12 16 22
26 21 23 38 35 18 26 13 18 10 10 6 6 8 8 7 7 9 10 9 8 8 9 12 12 8 5 5 6 7 8 12 21 17 14 11 14 12 10 8 9 9 8 10 18
27 40 35 29 32 34 22 15 13 11 7 7 7 8 9 7 7 7 10 9 8 8 10 10 11 6 6 4 4 6 9 8 11 11 13 11 11 9 10 10 8 9 8 8 13
62 57 28 28 41 36 23 19 10 7 6 6 9 8 10 9 8 8 9 8 8 6 7 9 12 8 6 5 4 5 5 10 10 20 19 12 12 12 12 11 9 9 8 8 10
70 30 25 35 47 41 25 17 13 10 7 7 8 9 7 7 7 8 9 6 6 7 6 7 10 10 8 8 7 6 6 7 9 11 15 16 13 8 11 11 10 9 8 8 10
57 33 28 41 40 29 29 20 15 10 8 6 6 8 9 8 8 8 8 7 6 6 8 8 10 14 11 7 6 5 6 6 11 18 12 13 11 7 7 8 8 9 8 8 8
56 39 29 23 25 22 20 18 15 15 12 9 7 6 7 8 11 9 8 6 7 7 9 8 12 15 15 10 7 8 7 6 6 9 18 15 13 7 7 7 8 8 8 8 9
69 34 22 23 23 18 18 18 18 14 12 11 10 8 7 8 8 9 9 7 7 7 15 12 12 15 15 15 9 9 7 6 6 8 10 11 12 10 9 9 8 8 8 9 10
70 40 29 36 26 34 44 57 36 45 26 17 15 12 9 10 9 9 8 8 7 8 12 11 17 13 12 11 10 8 6 6 7 7 10 9 10 10 10 9 8 7 8 8 8
88 54 54 44 38 38 40 36 30 29 34 39 28 15 11 12 10 10 8 10 11 8 11 10 17 16 15 10 10 10 9 7 6 6 6 7 8 6 7 8 8 8 8 8 8
97 85 71 46 35 33 29 37 33 20 33 43 46 52 33 18 21 20 14 8 9 13 14 15 17 23 24 15 14 15 10 9 9 7 7 8 7 6 8 9 9 8 8 8 8
Wind_Speed
16 16 16 16 16 16 17 17 16 15 16 16 17 17 17 18 18 20 14 14 11 11 14 9 12 13 12 16 16 13 6 3 7 18 15 13 13 9 12 17 14 6 19 25 27
16 17 17 17 18 18 17 18 17 16 16 16 16 18 18 20 20 22 20 21 22 17 16 17 16 14 17 15 15 8 7 8 9 21 17 11 14 14 13 16 15 10 23 27 27
17 17 17 16 17 18 18 18 19 18 17 16 16 17 19 19 22 10 9 3 12 20 17 18 16 16 19 19 15 15 14 20 10 7 13 14 12 13 14 13 18 17 24 28 27
15 16 18 19 18 18 19 19 19 20 19 18 17 16 17 15 7 0 6 9 6 18 19 20 21 20 20 16 16 13 8 8 2 10 4 13 15 11 9 15 17 18 23 28 28
17 17 17 19 19 20 20 21 20 20 21 20 19 16 17 11 19 18 16 17 10 14 21 23 25 23 20 18 16 11 11 6 6 9 9 15 15 12 10 10 16 19 24 28 27
20 19 19 19 19 20 20 21 21 20 20 21 20 18 16 20 11 7 7 6 10 16 22 23 23 23 21 23 17 13 13 11 6 11 11 10 15 12 15 12 18 21 25 26 26
21 22 22 21 21 20 20 22 22 21 20 20 19 17 14 23 8 9 12 11 11 15 20 25 25 21 23 20 21 15 12 14 10 9 11 14 14 14 21 16 20 21 23 25 26
21 21 22 22 23 23 21 21 21 21 20 18 16 11 13 11 13 17 15 15 15 17 20 19 24 26 22 22 26 18 18 16 14 13 13 17 17 17 18 21 20 21 23 25 26
23 23 24 22 21 22 23 22 20 19 19 17 9 6 16 10 11 11 16 17 16 15 17 19 18 27 22 18 17 18 17 21 13 16 14 16 9 17 19 21 20 22 23 25 26
26 23 26 24 23 21 19 19 18 19 16 9 10 8 19 14 10 9 10 15 17 16 16 20 19 18 20 19 18 19 21 20 20 17 13 16 6 18 19 20 20 22 23 25 27
28 26 26 24 23 21 16 9 9 5 14 18 13 13 6 9 9 11 11 14 18 20 18 24 18 23 26 26 23 23 21 19 15 24 19 18 15 15 16 17 19 24 24 26 27
28 28 26 25 21 14 10 8 7 8 16 24 34 35 31 19 17 20 13 17 20 19 21 17 24 24 24 26 24 28 23 19 14 17 21 18 19 19 19 16 18 22 26 27 28
26 28 27 23 15 5 13 7 3 13 10 22 31 33 33 29 33 26 26 25 18 22 23 24 21 24 25 25 27 25 25 19 17 27 22 16 17 17 15 23 19 20 23 28 30
27 26 27 25 6 11 5 3 9 11 7 13 10 12 18 18 18 29 29 33 25 23 24 25 21 25 28 28 26 25 25 24 19 12 12 19 15 21 19 20 19 23 25 27 30
28 24 27 18 18 9 7 8 10 5 7 9 12 12 20 21 14 21 27 33 26 22 18 25 25 24 29 30 29 26 24 24 23 17 23 24 17 11 21 21 21 21 26 28 30
27 26 24 14 14 15 13 9 6 7 14 9 11 14 19 23 16 12 20 32 30 22 23 25 25 26 23 27 23 24 23 24 23 18 18 22 17 19 16 18 17 23 28 28 29
28 25 23 22 11 3 5 6 7 12 3 11 16 19 21 18 20 14 18 25 23 24 23 23 28 23 25 24 25 29 24 16 19 18 19 21 19 20 16 16 18 17 24 30 31
32 27 20 18 13 14 8 9 16 12 28 1 17 20 24 19 19 20 17 21 28 24 17 21 20 29 22 28 28 32 28 20 24 18 18 23 23 22 18 13 14 17 16 18 29
32 22 19 15 16 15 18 16 14 22 18 19 13 20 24 23 19 20 22 22 25 26 25 19 25 18 29 26 27 30 29 28 27 24 20 21 26 23 10 17 18 19 23 15 24
28 23 22 12 14 16 14 30 23 32 15 16 24 20 21 24 20 20 20 22 24 27 26 20 18 22 24 26 26 34 24 27 22 28 26 24 23 18 21 19 18 14 21 17 20
19 11 6 4 9 19 17 25 28 46 38 27 23 25 27 24 26 25 24 23 21 24 26 25 19 16 23 30 30 20 27 23 26 24 21 20 19 20 15 14 19 21 28 22 19
16 7 3 4 13 15 19 27 31 31 32 30 24 27 25 25 22 20 20 25 21 20 27 25 16 16 22 24 25 29 28 32 19 29 21 22 19 13 16 19 16 17 18 20 21
14 21 22 18 14 15 22 29 31 31 31 31 28 30 26 27 24 23 20 20 10 16 20 21 19 17 22 21 23 28 29 31 33 23 26 22 21 23 15 13 17 16 22 29 11
12 7 18 21 23 21 23 26 24 29 26 26 26 26 27 31 26 23 25 22 21 15 2 10 21 23 18 22 19 25 30 31 29 23 23 27 26 24 23 14 12 18 14 15 9
10 13 13 11 12 10 15 21 19 21 28 27 23 31 28 29 26 27 26 20 28 23 20 17 20 23 26 25 19 23 27 28 32 31 28 26 30 27 26 23 21 27 21 24 22
9 10 13 20 25 20 18 20 20 19 17 24 23 23 26 26 24 25 27 24 20 24 22 21 19 19 22 24 24 25 22 28 29 31 33 32 32 25 29 34 23 24 24 24 24
13 17 13 12 17 15 13 21 26 14 11 23 13 17 20 14 20 22 23 26 24 18 23 22 18 18 21 22 21 23 28 26 24 26 27 28 30 28 29 25 25 33 30 30 32
Wind_Direction
321 319 317 314 310 309 309 309 309 307 306 304 302 307 314 313 312 302 273 257 231 235 241 235 221 234 239 249 254 278 311 106 214 48 124 147 120 133 107 136 153 136 138 154 154
321 319 318 317 315 312 308 305 305 304 303 301 299 302 311 315 307 280 266 255 252 235 227 211 219 219 232 240 246 241 336 288 36 166 121 152 136 136 150 149 145 142 129 153 158
321 318 315 312 311 310 308 306 303 301 300 299 300 301 306 316 309 269 201 5 234 211 209 214 223 222 235 242 230 245 163 288 130 24 136 148 146 148 147 166 159 154 150 159 163
322 319 314 312 311 309 308 304 303 301 300 299 298 301 302 307 286 200 221 292 328 199 202 213 220 225 236 236 233 248 221 255 53 119 184 157 149 164 170 156 155 161 163 166 169
325 320 316 311 310 310 308 306 303 301 299 298 297 300 301 270 263 268 272 276 244 193 203 214 219 223 233 243 238 229 271 245 221 172 236 155 150 166 168 143 151 154 165 173 175
327 321 316 314 312 310 306 302 301 301 299 297 296 296 290 264 274 248 230 197 194 196 211 215 221 223 243 246 253 234 235 261 239 228 181 200 151 157 158 158 151 159 170 177 181
327 325 321 319 315 309 305 303 299 299 299 297 295 289 267 251 241 244 214 220 214 214 217 218 222 227 234 258 249 260 257 234 222 208 164 213 158 193 161 167 160 168 176 181 186
329 323 319 318 316 312 309 302 299 298 296 295 292 277 260 259 247 234 225 230 226 223 223 221 220 235 242 236 252 236 243 243 183 168 151 221 179 178 163 169 170 175 180 185 191
332 329 324 320 314 311 310 305 302 297 292 290 294 225 261 230 240 228 219 224 217 218 215 220 223 224 236 244 249 229 228 227 147 173 155 223 184 174 166 180 181 180 183 190 194
334 330 325 325 321 317 311 306 304 293 284 268 238 243 243 226 203 183 198 206 201 196 201 209 216 215 222 223 226 220 220 224 176 172 183 213 236 146 168 189 187 186 188 193 196
332 326 325 328 325 325 321 328 304 259 232 236 249 223 122 177 188 218 198 197 198 197 206 199 205 210 211 225 227 235 220 235 209 161 193 194 221 156 171 201 195 186 197 195 202
330 326 325 328 327 322 333 318 323 317 293 258 255 252 251 248 241 221 194 201 204 212 210 188 217 214 220 218 227 240 245 228 215 149 194 202 207 184 173 202 204 198 198 204 204
329 327 325 326 335 1 319 278 294 333 267 279 243 240 240 230 234 229 218 215 212 215 212 220 209 216 216 222 223 231 243 239 220 159 212 226 224 196 182 185 210 211 207 206 208
324 327 327 328 343 315 318 286 307 325 276 260 196 229 212 208 230 225 222 213 228 222 225 226 222 202 220 221 224 226 233 252 234 175 233 209 242 194 205 194 191 211 210 209 207
316 320 318 331 309 302 301 304 300 288 279 112 141 154 180 189 128 193 210 204 217 215 220 225 224 219 212 220 220 231 229 235 247 204 208 208 228 204 215 196 193 204 210 213 207
316 314 312 321 295 278 285 289 292 232 238 193 161 186 179 209 235 146 198 208 215 227 227 240 213 227 221 224 221 232 239 239 236 245 245 230 216 244 169 228 190 194 204 210 213
318 312 301 292 257 254 262 253 230 234 146 204 193 189 202 192 211 184 196 194 201 211 220 225 233 219 237 217 219 224 227 231 233 222 234 235 217 224 219 196 208 223 203 201 206
324 316 304 278 266 256 243 227 233 241 228 346 203 199 206 210 202 192 197 204 208 210 218 216 217 229 209 224 221 216 220 223 226 230 228 229 237 226 221 224 199 209 234 204 193
329 325 296 274 250 217 215 221 229 234 266 233 216 240 208 226 228 207 208 210 208 217 221 215 223 214 221 220 225 221 220 229 236 230 237 226 220 246 238 223 224 241 238 228 194
326 317 296 248 229 201 225 236 234 252 264 255 239 228 232 209 211 234 211 217 217 212 228 230 247 210 212 220 221 237 220 221 231 239 235 230 237 217 207 226 241 224 247 224 219
333 303 261 203 209 220 232 238 239 257 269 254 258 243 239 236 230 213 229 237 218 217 212 228 239 233 208 205 219 219 235 227 228 235 243 244 240 223 201 207 219 225 230 220 210
303 271 219 232 225 236 243 249 258 266 256 246 258 265 253 252 242 251 221 238 202 223 211 214 224 229 240 222 215 228 227 234 234 223 237 255 246 208 209 189 211 250 257 270 209
288 280 273 247 250 252 257 260 250 256 258 256 243 241 254 258 252 239 228 242 212 223 230 200 225 226 223 243 215 219 229 232 231 239 228 236 240 256 216 234 213 211 233 239 237
293 285 280 221 246 261 272 273 274 263 255 266 257 255 235 249 244 242 242 241 222 219 299 264 226 225 225 223 230 217 221 235 234 233 236 238 246 237 235 218 217 207 236 237 221
260 273 299 292 266 329 308 317 283 295 292 262 251 252 248 237 236 240 240 227 234 219 243 237 234 236 225 257 241 234 218 228 236 243 237 240 233 237 236 229 225 224 238 256 233
269 296 306 289 290 291 273 271 277 267 281 297 298 254 251 254 234 232 232 232 223 212 214 219 230 240 240 230 235 256 247 227 224 240 246 245 251 244 242 250 231 213 223 247 259
263 269 273 278 278 274 271 265 301 266 265 251 354 325 298 321 330 311 294 229 233 229 206 220 216 221 232 233 246 232 236 247 247 232 230 242 251 251 257 254 241 235 236 244 254